Time,TemperatureF,DewpointF,PressureIn,WindDirection,WindDirectionDegrees,WindSpeedMPH,WindSpeedGustMPH,Humidity,HourlyPrecipIn,Conditions,Clouds,dailyrainin,SoftwareType,DateUTC
2013-06-27 00:05:00,81.4,68.5,29.87,SE,141,5.0,5.0,65,0.00,,,0.00,Wunderground v.1.15,2013-06-27 05:05:00,
2013-06-27 00:10:00,81.2,69.2,29.87,SE,143,6.0,6.0,67,0.00,,,0.00,Wunderground v.1.15,2013-06-27 05:10:00,
2013-06-27 00:20:00,80.9,69.3,29.87,SE,145,5.0,7.0,68,0.00,,,0.00,Wunderground v.1.15,2013-06-27 05:20:00,
2013-06-27 00:25:00,80.5,69.4,29.87,SE,144,4.0,7.0,69,0.00,,,0.00,Wunderground v.1.15,2013-06-27 05:25:00,
2013-06-27 00:35:00,80.1,69.4,29.87,SSE,154,4.0,4.0,70,0.00,,,0.00,Wunderground v.1.15,2013-06-27 05:35:00,
2013-06-27 00:40:00,79.9,69.7,29.87,SSE,154,4.0,4.0,71,0.00,,,0.00,Wunderground v.1.15,2013-06-27 05:40:00,
2013-06-27 00:50:00,79.6,69.8,29.87,SSE,158,4.0,5.0,72,0.00,,,0.00,Wunderground v.1.15,2013-06-27 05:50:00,
2013-06-27 00:55:00,79.4,69.6,29.87,South,171,4.0,14.0,72,0.00,,,0.00,Wunderground v.1.15,2013-06-27 05:55:00,
2013-06-27 01:05:00,79.0,69.2,29.87,SSE,154,5.0,7.0,72,0.00,,,0.00,Wunderground v.1.15,2013-06-27 06:05:00,
2013-06-27 01:10:00,78.8,69.0,29.86,SSE,151,5.0,8.0,72,0.00,,,0.00,Wunderground v.1.15,2013-06-27 06:10:00,
2013-06-27 01:20:00,78.5,69.1,29.86,SSE,154,5.0,7.0,73,0.00,,,0.00,Wunderground v.1.15,2013-06-27 06:20:00,
2013-06-27 01:25:00,78.3,69.3,29.87,SSE,167,5.0,7.0,74,0.00,,,0.00,Wunderground v.1.15,2013-06-27 06:25:00,
2013-06-27 01:35:00,77.9,68.9,29.87,SSE,168,4.0,7.0,74,0.00,,,0.00,Wunderground v.1.15,2013-06-27 06:35:00,
2013-06-27 01:40:00,77.7,69.1,29.86,SSE,168,4.0,7.0,75,0.00,,,0.00,Wunderground v.1.15,2013-06-27 06:40:00,
2013-06-27 01:50:00,77.4,69.6,29.87,SSE,148,5.0,7.0,77,0.00,,,0.00,Wunderground v.1.15,2013-06-27 06:50:00,
2013-06-27 01:55:00,77.2,69.8,29.87,SSE,161,6.0,7.0,78,0.00,,,0.00,Wunderground v.1.15,2013-06-27 06:55:00,
2013-06-27 02:05:00,76.8,69.8,29.86,SSE,165,4.0,5.0,79,0.00,,,0.00,Wunderground v.1.15,2013-06-27 07:05:00,
2013-06-27 02:10:00,76.7,70.1,29.86,South,174,4.0,4.0,80,0.00,,,0.00,Wunderground v.1.15,2013-06-27 07:10:00,
2013-06-27 02:20:00,76.5,70.2,29.87,SE,140,4.0,4.0,81,0.00,,,0.00,Wunderground v.1.15,2013-06-27 07:20:00,
2013-06-27 02:25:00,76.3,70.0,29.87,SSE,157,3.0,10.0,81,0.00,,,0.00,Wunderground v.1.15,2013-06-27 07:25:00,
2013-06-27 02:35:00,76.0,70.1,29.87,South,178,4.0,4.0,82,0.00,,,0.00,Wunderground v.1.15,2013-06-27 07:35:00,
2013-06-27 02:40:00,76.0,70.1,29.87,South,178,4.0,7.0,82,0.00,,,0.00,Wunderground v.1.15,2013-06-27 07:40:00,
2013-06-27 02:50:00,75.8,70.3,29.87,South,181,4.0,11.0,83,0.00,,,0.00,Wunderground v.1.15,2013-06-27 07:50:00,
2013-06-27 02:55:00,75.6,70.1,29.87,SSW,192,4.0,11.0,83,0.00,,,0.00,Wunderground v.1.15,2013-06-27 07:55:00,
2013-06-27 03:05:00,75.4,69.5,29.87,SSW,202,5.0,5.0,82,0.00,,,0.00,Wunderground v.1.15,2013-06-27 08:05:00,
2013-06-27 03:10:00,75.4,69.5,29.87,SE,145,5.0,7.0,82,0.00,,,0.00,Wunderground v.1.15,2013-06-27 08:10:00,
2013-06-27 03:20:00,75.4,69.5,29.87,South,191,5.0,5.0,82,0.00,,,0.00,Wunderground v.1.15,2013-06-27 08:20:00,
2013-06-27 03:25:00,75.3,69.4,29.87,South,191,4.0,5.0,82,0.00,,,0.00,Wunderground v.1.15,2013-06-27 08:25:00,
2013-06-27 03:35:00,75.3,69.4,29.87,South,178,4.0,4.0,82,0.00,,,0.00,Wunderground v.1.15,2013-06-27 08:35:00,
2013-06-27 03:40:00,75.3,69.8,29.87,South,186,3.0,3.0,83,0.00,,,0.00,Wunderground v.1.15,2013-06-27 08:40:00,
2013-06-27 03:50:00,75.1,69.6,29.87,South,184,3.0,5.0,83,0.00,,,0.00,Wunderground v.1.15,2013-06-27 08:50:00,
2013-06-27 03:55:00,75.1,69.6,29.87,SSE,168,3.0,5.0,83,0.00,,,0.00,Wunderground v.1.15,2013-06-27 08:55:00,
2013-06-27 04:05:00,75.1,69.6,29.88,South,171,3.0,6.0,83,0.00,,,0.00,Wunderground v.1.15,2013-06-27 09:05:00,
2013-06-27 04:10:00,74.9,69.4,29.88,South,182,4.0,4.0,83,0.00,,,0.00,Wunderground v.1.15,2013-06-27 09:10:00,
2013-06-27 04:20:00,74.9,69.4,29.88,South,184,4.0,4.0,83,0.00,,,0.00,Wunderground v.1.15,2013-06-27 09:20:00,
2013-06-27 04:25:00,74.9,69.4,29.88,SSW,195,4.0,4.0,83,0.00,,,0.00,Wunderground v.1.15,2013-06-27 09:25:00,
2013-06-27 04:35:00,74.7,69.2,29.89,SSW,192,4.0,5.0,83,0.00,,,0.00,Wunderground v.1.15,2013-06-27 09:35:00,
2013-06-27 04:45:00,74.7,69.2,29.89,South,181,4.0,5.0,83,0.00,,,0.00,Wunderground v.1.15,2013-06-27 09:45:00,
2013-06-27 04:50:00,74.7,69.2,29.89,South,178,4.0,7.0,83,0.00,,,0.00,Wunderground v.1.15,2013-06-27 09:50:00,
2013-06-27 04:55:00,74.6,69.1,29.89,SW,215,4.0,7.0,83,0.00,,,0.00,Wunderground v.1.15,2013-06-27 09:55:00,
2013-06-27 05:04:00,74.6,69.1,29.89,South,179,4.0,7.0,83,0.00,,,0.00,Wunderground v.1.15,2013-06-27 10:04:00,
2013-06-27 05:10:00,74.6,69.1,29.90,South,179,4.0,6.0,83,0.00,,,0.00,Wunderground v.1.15,2013-06-27 10:10:00,
2013-06-27 05:20:00,74.6,69.1,29.90,SSW,199,5.0,9.0,83,0.00,,,0.00,Wunderground v.1.15,2013-06-27 10:20:00,
2013-06-27 05:25:00,74.4,68.9,29.90,SSE,165,4.0,9.0,83,0.00,,,0.00,Wunderground v.1.15,2013-06-27 10:25:00,
2013-06-27 05:35:00,74.2,68.7,29.90,South,174,3.0,7.0,83,0.00,,,0.00,Wunderground v.1.15,2013-06-27 10:35:00,
2013-06-27 05:40:00,74.2,68.7,29.90,South,175,2.0,2.0,83,0.00,,,0.00,Wunderground v.1.15,2013-06-27 10:40:00,
2013-06-27 05:50:00,74.0,68.5,29.90,South,179,3.0,4.0,83,0.00,,,0.00,Wunderground v.1.15,2013-06-27 10:50:00,
2013-06-27 05:55:00,74.0,68.5,29.90,South,179,3.0,4.0,83,0.00,,,0.00,Wunderground v.1.15,2013-06-27 10:55:00,
2013-06-27 06:05:00,73.9,68.8,29.90,South,182,3.0,3.0,84,0.00,,,0.00,Wunderground v.1.15,2013-06-27 11:05:00,
2013-06-27 06:10:00,73.7,68.6,29.91,SSE,164,4.0,4.0,84,0.00,,,0.00,Wunderground v.1.15,2013-06-27 11:10:00,
2013-06-27 06:20:00,73.7,68.6,29.91,South,171,3.0,3.0,84,0.00,,,0.00,Wunderground v.1.15,2013-06-27 11:20:00,
2013-06-27 06:25:00,73.5,68.4,29.91,South,178,3.0,3.0,84,0.00,,,0.00,Wunderground v.1.15,2013-06-27 11:25:00,
2013-06-27 06:35:00,73.5,68.4,29.91,SSW,200,4.0,4.0,84,0.00,,,0.00,Wunderground v.1.15,2013-06-27 11:35:00,
2013-06-27 06:40:00,73.5,68.4,29.91,South,188,5.0,5.0,84,0.00,,,0.00,Wunderground v.1.15,2013-06-27 11:40:00,
2013-06-27 06:50:00,73.5,68.4,29.91,SSW,193,4.0,4.0,84,0.00,,,0.00,Wunderground v.1.15,2013-06-27 11:50:00,
2013-06-27 06:55:00,73.5,68.4,29.91,South,182,4.0,9.0,84,0.00,,,0.00,Wunderground v.1.15,2013-06-27 11:55:00,
2013-06-27 07:05:00,73.5,68.4,29.91,South,185,3.0,5.0,84,0.00,,,0.00,Wunderground v.1.15,2013-06-27 12:05:00,
2013-06-27 07:10:00,73.5,68.4,29.91,South,191,3.0,8.0,84,0.00,,,0.00,Wunderground v.1.15,2013-06-27 12:10:00,
2013-06-27 07:20:00,73.7,68.2,29.92,South,188,3.0,3.0,83,0.00,,,0.00,Wunderground v.1.15,2013-06-27 12:20:00,
2013-06-27 07:25:00,73.7,68.2,29.92,South,191,3.0,3.0,83,0.00,,,0.00,Wunderground v.1.15,2013-06-27 12:25:00,
2013-06-27 07:35:00,73.9,68.4,29.93,South,189,3.0,6.0,83,0.00,,,0.00,Wunderground v.1.15,2013-06-27 12:35:00,
2013-06-27 07:40:00,74.0,68.5,29.93,South,189,3.0,3.0,83,0.00,,,0.00,Wunderground v.1.15,2013-06-27 12:40:00,
2013-06-27 07:50:00,74.4,68.9,29.94,South,172,3.0,3.0,83,0.00,,,0.00,Wunderground v.1.15,2013-06-27 12:50:00,
2013-06-27 07:55:00,74.6,69.1,29.94,South,174,3.0,6.0,83,0.00,,,0.00,Wunderground v.1.15,2013-06-27 12:55:00,
2013-06-27 08:05:00,74.9,69.0,29.94,South,174,2.0,3.0,82,0.00,,,0.00,Wunderground v.1.15,2013-06-27 13:05:00,
2013-06-27 08:10:00,74.9,69.0,29.94,South,174,1.0,1.0,82,0.00,,,0.00,Wunderground v.1.15,2013-06-27 13:10:00,
2013-06-27 08:20:00,75.4,69.2,29.94,South,172,1.0,1.0,81,0.00,,,0.00,Wunderground v.1.15,2013-06-27 13:20:00,
2013-06-27 08:25:00,75.8,69.2,29.94,South,172,2.0,2.0,80,0.00,,,0.00,Wunderground v.1.15,2013-06-27 13:25:00,
2013-06-27 08:35:00,76.3,68.9,29.95,South,179,3.0,6.0,78,0.00,,,0.00,Wunderground v.1.15,2013-06-27 13:35:00,
2013-06-27 08:40:00,76.5,69.9,29.95,South,181,4.0,4.0,80,0.00,,,0.00,Wunderground v.1.15,2013-06-27 13:40:00,
2013-06-27 08:50:00,76.7,68.9,29.96,South,179,3.0,3.0,77,0.00,,,0.00,Wunderground v.1.15,2013-06-27 13:50:00,
2013-06-27 08:55:00,77.4,69.2,29.96,South,179,2.0,3.0,76,0.00,,,0.00,Wunderground v.1.15,2013-06-27 13:55:00,
2013-06-27 09:05:00,78.6,68.4,29.96,South,182,2.0,3.0,71,0.00,,,0.00,Wunderground v.1.15,2013-06-27 14:05:00,
2013-06-27 09:10:00,79.2,68.6,29.96,South,185,4.0,4.0,70,0.00,,,0.00,Wunderground v.1.15,2013-06-27 14:10:00,
2013-06-27 09:20:00,80.5,69.4,29.95,SSW,209,2.0,2.0,69,0.00,,,0.00,Wunderground v.1.15,2013-06-27 14:20:00,
2013-06-27 09:25:00,80.9,69.3,29.95,SSW,208,3.0,3.0,68,0.00,,,0.00,Wunderground v.1.15,2013-06-27 14:25:00,
2013-06-27 09:35:00,81.8,69.3,29.96,SSW,208,2.0,6.0,66,0.00,,,0.00,Wunderground v.1.15,2013-06-27 14:35:00,
2013-06-27 09:40:00,82.0,69.1,29.96,SSW,206,2.0,2.0,65,0.00,,,0.00,Wunderground v.1.15,2013-06-27 14:40:00,
2013-06-27 09:50:00,83.0,68.6,29.96,SSW,206,1.0,1.0,62,0.00,,,0.00,Wunderground v.1.15,2013-06-27 14:50:00,
2013-06-27 09:55:00,83.4,69.0,29.96,SSW,203,1.0,6.0,62,0.00,,,0.00,Wunderground v.1.15,2013-06-27 14:55:00,
2013-06-27 10:05:00,83.8,68.4,29.95,SSW,200,2.0,2.0,60,0.00,,,0.00,Wunderground v.1.15,2013-06-27 15:05:00,
2013-06-27 10:10:00,84.1,68.7,29.95,SSW,202,1.0,1.0,60,0.00,,,0.00,Wunderground v.1.15,2013-06-27 15:10:00,
2013-06-27 10:20:00,84.9,68.5,29.95,South,179,1.0,8.0,58,0.00,,,0.00,Wunderground v.1.15,2013-06-27 15:20:00,
2013-06-27 10:25:00,85.3,68.8,29.95,South,179,1.0,8.0,58,0.00,,,0.00,Wunderground v.1.15,2013-06-27 15:25:00,
2013-06-27 10:35:00,86.1,68.6,29.94,South,179,2.0,7.0,56,0.00,,,0.00,Wunderground v.1.15,2013-06-27 15:35:00,
2013-06-27 10:40:00,86.7,68.6,29.94,South,181,1.0,1.0,55,0.00,,,0.00,Wunderground v.1.15,2013-06-27 15:40:00,
2013-06-27 10:50:00,87.4,68.2,29.94,South,176,1.0,1.0,53,0.00,,,0.00,Wunderground v.1.15,2013-06-27 15:50:00,
2013-06-27 10:55:00,88.2,67.8,29.94,South,189,1.0,1.0,51,0.00,,,0.00,Wunderground v.1.15,2013-06-27 15:55:00,
2013-06-27 11:05:00,88.8,66.6,29.94,SSW,195,2.0,5.0,48,0.00,,,0.00,Wunderground v.1.15,2013-06-27 16:05:00,
2013-06-27 11:10:00,89.3,67.0,29.94,SSW,195,1.0,6.0,48,0.00,,,0.00,Wunderground v.1.15,2013-06-27 16:10:00,
2013-06-27 11:20:00,89.5,65.4,29.94,SSW,200,3.0,3.0,45,0.00,,,0.00,Wunderground v.1.15,2013-06-27 16:20:00,
2013-06-27 11:25:00,89.9,65.7,29.95,SSW,200,2.0,3.0,45,0.00,,,0.00,Wunderground v.1.15,2013-06-27 16:25:00,
2013-06-27 11:34:00,90.5,65.6,29.94,SSW,200,3.0,5.0,44,0.00,,,0.00,Wunderground v.1.15,2013-06-27 16:34:00,
2013-06-27 11:40:00,90.7,64.5,29.94,SSW,196,4.0,4.0,42,0.00,,,0.00,Wunderground v.1.15,2013-06-27 16:40:00,
2013-06-27 11:50:00,91.4,64.4,29.94,SSW,196,1.0,1.0,41,0.00,,,0.00,Wunderground v.1.15,2013-06-27 16:50:00,
2013-06-27 11:55:00,92.1,65.0,29.93,SSW,193,1.0,2.0,41,0.00,,,0.00,Wunderground v.1.15,2013-06-27 16:55:00,
2013-06-27 12:05:00,92.5,63.9,29.94,South,189,1.0,1.0,39,0.00,,,0.00,Wunderground v.1.15,2013-06-27 17:05:00,
2013-06-27 12:10:00,92.7,64.1,29.93,SSW,193,2.0,5.0,39,0.00,,,0.00,Wunderground v.1.15,2013-06-27 17:10:00,
2013-06-27 12:20:00,93.2,66.0,29.93,SSW,192,1.0,1.0,41,0.00,,,0.00,Wunderground v.1.15,2013-06-27 17:20:00,
2013-06-27 12:25:00,93.4,64.0,29.93,SSW,193,1.0,1.0,38,0.00,,,0.00,Wunderground v.1.15,2013-06-27 17:25:00,
2013-06-27 12:35:00,93.8,62.8,29.93,SSW,202,1.0,1.0,36,0.00,,,0.00,Wunderground v.1.15,2013-06-27 17:35:00,
2013-06-27 12:40:00,94.5,61.0,29.93,SSW,202,2.0,4.0,33,0.00,,,0.00,Wunderground v.1.15,2013-06-27 17:40:00,
2013-06-27 12:50:00,94.3,63.2,29.92,SSW,202,1.0,1.0,36,0.00,,,0.00,Wunderground v.1.15,2013-06-27 17:50:00,
2013-06-27 12:55:00,94.3,61.6,29.92,SSW,199,0.0,5.0,34,0.00,,,0.00,Wunderground v.1.15,2013-06-27 17:55:00,
2013-06-27 13:05:00,95.6,58.3,29.92,South,175,2.0,6.0,29,0.00,,,0.00,Wunderground v.1.15,2013-06-27 18:05:00,
2013-06-27 13:10:00,95.9,58.5,29.92,South,175,2.0,2.0,29,0.00,,,0.00,Wunderground v.1.15,2013-06-27 18:10:00,
2013-06-27 13:20:00,95.9,61.3,29.92,SSE,164,1.0,1.0,32,0.00,,,0.00,Wunderground v.1.15,2013-06-27 18:20:00,
2013-06-27 13:25:00,96.1,59.7,29.92,SSE,165,1.0,1.0,30,0.00,,,0.00,Wunderground v.1.15,2013-06-27 18:25:00,
2013-06-27 13:34:00,97.3,60.7,29.91,SSE,161,1.0,2.0,30,0.00,,,0.00,Wunderground v.1.15,2013-06-27 18:34:00,
2013-06-27 13:40:00,97.5,58.9,29.91,SSE,161,1.0,1.0,28,0.00,,,0.00,Wunderground v.1.15,2013-06-27 18:40:00,
2013-06-27 13:50:00,98.2,59.5,29.90,SSE,158,1.0,1.0,28,0.00,,,0.00,Wunderground v.1.15,2013-06-27 18:50:00,
2013-06-27 13:55:00,98.5,59.8,29.90,South,169,1.0,1.0,28,0.00,,,0.00,Wunderground v.1.15,2013-06-27 18:55:00,
2013-06-27 14:05:00,99.0,54.7,29.90,SSE,168,1.0,1.0,23,0.00,,,0.00,Wunderground v.1.15,2013-06-27 19:05:00,
2013-06-27 14:10:00,98.7,57.9,29.90,SSE,168,0.0,0.0,26,0.00,,,0.00,Wunderground v.1.15,2013-06-27 19:10:00,
2013-06-27 14:20:00,99.4,57.4,29.89,SSE,168,1.0,1.0,25,0.00,,,0.00,Wunderground v.1.15,2013-06-27 19:20:00,
2013-06-27 14:25:00,99.7,58.7,29.89,South,169,2.0,2.0,26,0.00,,,0.00,Wunderground v.1.15,2013-06-27 19:25:00,
2013-06-27 14:35:00,99.2,60.4,29.89,South,169,0.0,1.0,28,0.00,,,0.00,Wunderground v.1.15,2013-06-27 19:35:00,
2013-06-27 14:40:00,99.2,59.3,29.88,South,169,0.0,0.0,27,0.00,,,0.00,Wunderground v.1.15,2013-06-27 19:40:00,
2013-06-27 14:50:00,99.9,58.9,29.88,South,182,1.0,7.0,26,0.00,,,0.00,Wunderground v.1.15,2013-06-27 19:50:00,
2013-06-27 14:55:00,100.2,59.1,29.88,South,184,2.0,7.0,26,0.00,,,0.00,Wunderground v.1.15,2013-06-27 19:55:00,
2013-06-27 15:05:00,100.4,58.2,29.88,South,184,2.0,3.0,25,0.00,,,0.00,Wunderground v.1.15,2013-06-27 20:05:00,
2013-06-27 15:10:00,101.0,57.6,29.87,South,184,1.0,1.0,24,0.00,,,0.00,Wunderground v.1.15,2013-06-27 20:10:00,
2013-06-27 15:20:00,101.2,56.6,29.87,South,182,0.0,0.0,23,0.00,,,0.00,Wunderground v.1.15,2013-06-27 20:20:00,
2013-06-27 15:25:00,101.7,58.2,29.87,South,176,1.0,1.0,24,0.00,,,0.00,Wunderground v.1.15,2013-06-27 20:25:00,
2013-06-27 15:40:00,101.2,55.3,29.86,SE,138,1.0,1.0,22,0.00,,,0.00,Wunderground v.1.15,2013-06-27 20:40:00,
2013-06-27 15:50:00,101.7,55.7,29.86,SE,136,0.0,4.0,22,0.00,,,0.00,Wunderground v.1.15,2013-06-27 20:50:00,
2013-06-27 15:55:00,101.5,56.8,29.86,SE,130,1.0,4.0,23,0.00,,,0.00,Wunderground v.1.15,2013-06-27 20:55:00,
2013-06-27 16:10:00,101.7,57.0,29.85,SE,128,0.0,0.0,23,0.00,,,0.00,Wunderground v.1.15,2013-06-27 21:10:00,
2013-06-27 16:20:00,101.5,55.6,29.85,SE,131,1.0,2.0,22,0.00,,,0.00,Wunderground v.1.15,2013-06-27 21:20:00,
2013-06-27 16:30:00,101.0,55.2,29.85,SE,131,0.0,5.0,22,0.00,,,0.00,Wunderground v.1.15,2013-06-27 21:30:00,
2013-06-27 16:35:00,100.4,55.9,29.85,SE,131,0.0,5.0,23,0.00,,,0.00,Wunderground v.1.15,2013-06-27 21:35:00,
2013-06-27 16:40:00,100.2,55.7,29.85,SE,131,0.0,0.0,23,0.00,,,0.00,Wunderground v.1.15,2013-06-27 21:40:00,
2013-06-27 16:50:00,100.2,54.5,29.85,SE,133,0.0,6.0,22,0.00,,,0.00,Wunderground v.1.15,2013-06-27 21:50:00,
2013-06-27 16:55:00,99.9,54.3,29.85,SE,131,0.0,6.0,22,0.00,,,0.00,Wunderground v.1.15,2013-06-27 21:55:00,
2013-06-27 17:05:00,99.2,53.7,29.85,SE,124,1.0,6.0,22,0.00,,,0.00,Wunderground v.1.15,2013-06-27 22:05:00,
2013-06-27 17:14:00,99.0,54.7,29.85,SE,124,1.0,1.0,23,0.00,,,0.00,Wunderground v.1.15,2013-06-27 22:14:00,
2013-06-27 17:25:00,98.5,54.3,29.84,ESE,120,0.0,1.0,23,0.00,,,0.00,Wunderground v.1.15,2013-06-27 22:25:00,
2013-06-27 17:35:00,98.0,52.7,29.84,ESE,120,0.0,0.0,22,0.00,,,0.00,Wunderground v.1.15,2013-06-27 22:35:00,
2013-06-27 17:40:00,97.8,53.7,29.84,ESE,120,0.0,0.0,23,0.00,,,0.00,Wunderground v.1.15,2013-06-27 22:40:00,
2013-06-27 17:50:00,97.5,52.3,29.83,ESE,120,1.0,1.0,22,0.00,,,0.00,Wunderground v.1.15,2013-06-27 22:50:00,
2013-06-27 17:55:00,97.3,53.3,29.83,ESE,120,0.0,1.0,23,0.00,,,0.00,Wunderground v.1.15,2013-06-27 22:55:00,
2013-06-27 18:05:00,97.1,54.3,29.83,ESE,120,0.0,0.0,24,0.00,,,0.00,Wunderground v.1.15,2013-06-27 23:05:00,
2013-06-27 18:14:00,97.1,54.3,29.83,ESE,119,2.0,6.0,24,0.00,,,0.00,Wunderground v.1.15,2013-06-27 23:14:00,
2013-06-27 18:25:00,96.8,55.2,29.83,ESE,119,1.0,1.0,25,0.00,,,0.00,Wunderground v.1.15,2013-06-27 23:25:00,
2013-06-27 18:40:00,96.3,53.6,29.83,ESE,113,1.0,1.0,24,0.00,,,0.00,Wunderground v.1.15,2013-06-27 23:40:00,
2013-06-27 18:50:00,96.1,53.5,29.83,ESE,114,1.0,1.0,24,0.00,,,0.00,Wunderground v.1.15,2013-06-27 23:50:00,
2013-06-27 19:00:00,95.6,53.1,29.83,ESE,119,0.0,0.0,24,0.00,,,0.00,Wunderground v.1.15,2013-06-28 00:00:00,
2013-06-27 19:10:00,95.1,51.5,29.83,ESE,119,1.0,1.0,23,0.00,,,0.00,Wunderground v.1.15,2013-06-28 00:10:00,
2013-06-27 19:20:00,94.9,52.5,29.83,ESE,119,1.0,1.0,24,0.00,,,0.00,Wunderground v.1.15,2013-06-28 00:20:00,
2013-06-27 19:25:00,94.5,52.1,29.83,ESE,119,1.0,1.0,24,0.00,,,0.00,Wunderground v.1.15,2013-06-28 00:25:00,
2013-06-27 19:40:00,93.8,55.8,29.84,ESE,119,0.0,0.0,28,0.00,,,0.00,Wunderground v.1.15,2013-06-28 00:40:00,
2013-06-27 19:50:00,92.9,55.0,29.84,ESE,119,0.0,0.0,28,0.00,,,0.00,Wunderground v.1.15,2013-06-28 00:50:00,
2013-06-27 20:20:00,89.5,58.2,29.84,ESE,119,0.0,0.0,35,0.00,,,0.00,Wunderground v.1.15,2013-06-28 01:20:00,
2013-06-27 20:30:00,88.0,58.5,29.84,ESE,119,0.0,0.0,37,0.00,,,0.00,Wunderground v.1.15,2013-06-28 01:30:00,
2013-06-27 20:40:00,86.3,57.7,29.84,ESE,119,0.0,0.0,38,0.00,,,0.00,Wunderground v.1.15,2013-06-28 01:40:00,
2013-06-27 20:50:00,84.9,56.5,29.84,ESE,119,0.0,0.0,38,0.00,,,0.00,Wunderground v.1.15,2013-06-28 01:50:00,
2013-06-27 21:00:00,83.6,57.4,29.85,ESE,119,0.0,0.0,41,0.00,,,0.00,Wunderground v.1.15,2013-06-28 02:00:00,
2013-06-27 21:05:00,82.8,56.7,29.84,ESE,119,0.0,0.0,41,0.00,,,0.00,Wunderground v.1.15,2013-06-28 02:05:00,
2013-06-27 21:10:00,82.2,57.5,29.84,ESE,119,0.0,0.0,43,0.00,,,0.00,Wunderground v.1.15,2013-06-28 02:10:00,
2013-06-27 21:20:00,81.4,58.0,29.84,ESE,119,0.0,0.0,45,0.00,,,0.00,Wunderground v.1.15,2013-06-28 02:20:00,
2013-06-27 21:25:00,80.9,58.2,29.84,ESE,119,0.0,0.0,46,0.00,,,0.00,Wunderground v.1.15,2013-06-28 02:25:00,
2013-06-27 21:35:00,80.3,58.2,29.84,ESE,119,0.0,0.0,47,0.00,,,0.00,Wunderground v.1.15,2013-06-28 02:35:00,
2013-06-27 21:40:00,79.9,57.9,29.84,ESE,119,0.0,0.0,47,0.00,,,0.00,Wunderground v.1.15,2013-06-28 02:40:00,
2013-06-27 21:55:00,79.0,57.6,29.84,ESE,119,0.0,0.0,48,0.00,,,0.00,Wunderground v.1.15,2013-06-28 02:55:00,
2013-06-27 22:05:00,78.8,57.4,29.83,ESE,119,0.0,0.0,48,0.00,,,0.00,Wunderground v.1.15,2013-06-28 03:05:00,
2013-06-27 22:10:00,78.8,57.4,29.83,ESE,119,0.0,0.0,48,0.00,,,0.00,Wunderground v.1.15,2013-06-28 03:10:00,
2013-06-27 22:20:00,79.2,57.2,29.83,ESE,119,0.0,0.0,47,0.00,,,0.00,Wunderground v.1.15,2013-06-28 03:20:00,
2013-06-27 22:25:00,79.2,57.8,29.83,ESE,119,0.0,0.0,48,0.00,,,0.00,Wunderground v.1.15,2013-06-28 03:25:00,
2013-06-27 22:45:00,78.6,57.3,29.84,ESE,119,0.0,0.0,48,0.00,,,0.00,Wunderground v.1.15,2013-06-28 03:45:00,
2013-06-27 22:50:00,78.5,57.7,29.84,ESE,119,0.0,0.0,49,0.00,,,0.00,Wunderground v.1.15,2013-06-28 03:50:00,
2013-06-27 22:55:00,78.1,57.9,29.85,ESE,119,0.0,0.0,50,0.00,,,0.00,Wunderground v.1.15,2013-06-28 03:55:00,
2013-06-27 23:05:00,77.7,57.6,29.86,ESE,119,0.0,5.0,50,0.00,,,0.00,Wunderground v.1.15,2013-06-28 04:05:00,
2013-06-27 23:10:00,78.3,57.0,29.86,ESE,119,2.0,2.0,48,0.00,,,0.00,Wunderground v.1.15,2013-06-28 04:10:00,
2013-06-27 23:14:00,78.8,57.4,29.86,ESE,119,2.0,3.0,48,0.00,,,0.00,Wunderground v.1.15,2013-06-28 04:14:00,
2013-06-27 23:20:00,79.4,58.0,29.87,ESE,119,2.0,2.0,48,0.00,,,0.00,Wunderground v.1.15,2013-06-28 04:20:00,
2013-06-27 23:25:00,80.1,58.6,29.87,ESE,120,1.0,4.0,48,0.00,,,0.00,Wunderground v.1.15,2013-06-28 04:25:00,
2013-06-27 23:30:00,80.7,59.8,29.87,ESE,120,2.0,2.0,49,0.00,,,0.00,Wunderground v.1.15,2013-06-28 04:30:00,
2013-06-27 23:35:00,80.9,59.9,29.88,ESE,120,2.0,2.0,49,0.00,,,0.00,Wunderground v.1.15,2013-06-28 04:35:00,
2013-06-27 23:40:00,80.9,60.5,29.88,ESE,120,1.0,3.0,50,0.00,,,0.00,Wunderground v.1.15,2013-06-28 04:40:00,
2013-06-27 23:45:00,80.9,61.6,29.88,ESE,120,1.0,3.0,52,0.00,,,0.00,Wunderground v.1.15,2013-06-28 04:45:00,
2013-06-27 23:50:00,80.7,61.4,29.89,ESE,120,1.0,1.0,52,0.00,,,0.00,Wunderground v.1.15,2013-06-28 04:50:00,
2013-06-27 23:55:00,80.5,62.3,29.89,ESE,120,1.0,5.0,54,0.00,,,0.00,Wunderground v.1.15,2013-06-28 04:55:00,